Погода в Зырянке

Погода в Зырянке : погода сейчас, прогноз погоды и архив. Всё, что Вы хотите узнать о погоде в Зырянке!

Хотите узнать прогноз погоды в Зырянке? Тогда Вам сюда: Погода в Зырянке

Поиск расширенной информации на нашем сайте:

Полезная информация: Neverwinter online купить аб кач в neverwinter online neverwinter-diamonds.ru.

Другие новости

Новости СМИ2

Главная страница сайта

Новости сайта

02.10.2013

Напоминаем, что на нашем новом сайте вы можете получить высокодетализированные прогнозы погоды по пунктам России, СНГ и мира (включающие важные для авиации метеовеличины, такие как направление и скорость ветра, видимость, явления погоды, количество и форма облачности, нижняя и верхняя граница облачности), а также ознакомиться с разнообразными материалами по авиационной метеорологии и подборкой полезных ссылок на эту тему.

Сайт Метеоцентр.Азия посвящён разработке технологий оптимизации авиаметеорологического обслуживания, включая проектирование и перспективное создание нескольких автоматизированных авиаметеорологических систем:
- система выпуска высокодетальных прогностических карт явлений погоды для нижнего воздушного пространства по России и ближнему зарубежью;
- система верификации прогнозов TAF (выпускаемых синоптиками официальных АМСГ РФ и ближнего зарубежья) и AUTOTAF (выпускаемых сайтом Метеоцентр.Азия) - выявление ошибок, онлайн-сопоставление с фактической погодой METAR, автоматическое внесение коррективов в прогнозы при резком отклонении фактической погоды от прогноза, подсчёт оправдываемости прогнозов по элементам и в целом;
- система обработки, анализа и отображения авиаметеорологической информации для применения провайдерами метеорологической информации.

Рекомендуем: 2016 следующий год какого животного кого

Погода в Зырянке - сегодня

Время (UTC), дата Ветер
(°,м/с) 
Видим.   Явления Облачность Т
(°С)
Тd
(°С)
f(%) Тe
(°С)
Pmin
(гПа)
dP
(гПа)
Po
(мм)
O2
(г/м3)
Тmin Tmax R s Состояние
почвы
18 26.05.17 330 (СЗ) 20000 м  слаб. ливневой дождь  10/6 1000 м кучево-дожд., средняя 
[Cb cap|Ac As]
+1.3 -2.2 77 -1  1002.4  1.4  748  300           
21 26.05.17 330 (СЗ) 20000 м  слаб. ливневой снег  10/5 540 м кучево-дожд., средняя 
[Cb cap|Ac trans]
+1.6 -2.5 74 -1  1003.6  1.1  749  300  +1.3    0.8    влажная 
00 27.05.17 330 (СЗ) 20000 м    8/4 600 м средняя 
[Cu hum|Ac trans]
+3.8 -1.4 69 +1  1004.1  0.6  749  298           
03 27.05.17 340 (С) 20000 м    3/0 средняя 
[Ac trans]
+7.2 -0.3 59 +6  1004  749  294           
06 27.05.17 350 (С) 20000 м    ясно 
+9 +0.3 54 +8  1003.7  -0.3  749  292           
09 27.05.17 020 (С) 20000 м    ясно 
+9.7 +0 51 +9  1003.6  -0.1  749  291    +9.9       
12 27.05.17 340 (С) 20000 м    ясно 
+6.6 -2.8 51 +6  1004.5  0.8  749  295           
15 27.05.17 010 (С) 20000 м    ясно 
+3.6 -1.7 68 +2  1004.7  0.2  750  298           
18 27.05.17 350 (С) 20000 м    3/0 верхняя 
[Ci fib]
+2.6 -1.3 75 +1  1005.1  0.4  750  299           
00 28.05.17 010 (С) 20000 м    6/0 верхняя 
[Ci fib]
+3.8 -0.5 73 +1  1006.7  0.9  751  299           
03 28.05.17 350 (С) 20000 м    3/0 верхняя 
[Ci fib]
+8.2 +1.6 63 +7  1007.1  0.5  751  294           
06 28.05.17 340 (С) 20000 м    1/0 верхняя 
[Ci fib]
+8.7 +0.2 55 +7  1008.2  1.1  752  294           
12 28.05.17 320 (СЗ) 20000 м    3/0 средняя 
[Ac trans]
+5.6 -2.1 58 +4  1011.7  2.4  755  298           
15 28.05.17 330 (СЗ) 20000 м    3/0 средняя 
[Ac trans]
+3.3 -2.1 68 +1  1013.7  756  301           
18 28.05.17 330 (СЗ) 20000 м    3/0 средняя 
[Ac trans]
+2.4 -1.8 74 +1  1015.4  758  303           
00 29.05.17 010 (С) 20000 м    3/3 1500 м 
[Cu hum]
+7.5 -2.2 50 +8  1016.4  0.3  758  298           
03 29.05.17 350 (С) 20000 м    3/3 1500 м 
[Cu hum]
+9 -1.4 48 +9  1015.9  -0.5  758  296           
06 29.05.17 340 (С) 20000 м    4/4 1500 м 
[Cu hum]
+9.5 -1 48 +10  1015.4  -0.5  758  295           
09 29.05.17 030 (СВ) 20000 м    ясно 
+10.3 -0.1 48 +10  1015.8  0.4  758  294    +10.3       
12 29.05.17 050 (СВ) 20000 м    ясно 
+7.2 -1.9 52 +7  1016.5  0.7  758  298           
15 29.05.17 080 (В) 20000 м    1/0 верхняя 
[Ci fib]
+2.9 -2.9 66 +4  1016.2  -0.4  758  303           
18 29.05.17 150 (ЮВ) 20000 м    1/0 верхняя 
[Ci fib]
+3.5 -2.5 65 +3  1015.6  -0.6  758  302           
00 30.05.17 130 (ЮВ) 20000 м    10/0 верхняя 
[Cs]
+11.1 -0.6 44 +10  1013.4  -1.4  756  293           
03 30.05.17 170 (Ю) 5{10}  20000 м    10/0 верхняя 
[Cs]
+13.3 -0.5 39 +13  1011.5  -1.9  755  290           
06 30.05.17 160 (Ю) 6{12}  20000 м    10/0 верхняя 
[Ci fib]
+15.4 +0.2 35 +15  1009.6  -1.8  753  287           
Время (UTC), дата Ветер
(°,м/с) 
Видим.   Явления Облачность Т
(°С)
Тd
(°С)
f(%) Тe
(°С)
Pmin
(гПа)
dP
(гПа)
Po
(мм)
O2
(г/м3)
Тmin Tmax R s Состояние
почвы

Для получения пояснительной информации подведите курсор к названию столбца.

ПОГОДА в Зырянке - архив

Всё, что Вы хотите узнать о погоде в Зырянке - удобно и подробно!

Выберите нужную дату (начиная с 1 января 2015* года) и нажмите кнопку "Найти".
Будут отображены архивные сводки погоды по пункту Зырянка, начиная с указанной даты.


Отображать данные в формате CSV (для использования в таблицах Excel)


Внимание! Наш архив погоды предназначен исключительно для личного некоммерческого использования в познавательных целях. Если Вам необходимы официальные справки о состоянии погоды (для производственных, юридических, коммерческих и т.п. целей), обращайтесь в органы Росгидромета.

*Примечание: данная дата относится к архиву по метеостанциям СССР (Россия, СНГ, Балтия).
Архив по метеостанциям Зарубежной Европы и Азии (кроме Китая) хранится 10 дней, по другим регионам земного шара (Китай, Африка, Америка, Австралия, Океания) - 1 день.

Зырянка - район местоположения метеостанции


Название, широта, долгота, высота метеостанции:
Зырянка 65.7°ш. 150.9°д. 43 м над ур. моря [Российская Федерация]

Дополнительная информация

В oтличие oт бoльшинства пoгoдных сайтoв мы публикуем пoдрoбную метеoинфoрмацию в детальнoм прoфессиoнальнoм фoрмате.

Характеристики температуры и влажнoсти вoздуха измеряются на высoте 2 м в тени вдали oт зданий и деревьев.
Скoрoсть ветра измеряется на высoте 10 м (на урoвне рoста челoвека скoрoсть ветра ниже в 1.5-2 раза). Если метеoстанция нахoдится в гoрoде или в лесу, тo скoрoсть ветра занижена на 2-4 м/с пo сравнению с oткрытым местoм. Скoрoсть ветра над акватoриями крупных рек и oзёр, а также на вершинах хoлмoв на 2-5 м/с выше, чем в oбычных услoвиях.
Атмoсфернoе давление в разных тoчках местнoсти мoжет значительнo oтличаться oт давления на метеoстанции, в зависимoсти oт услoвий рельефа (при пoдъёме на 10 м давление пoнижается примернo на 1 мм рт.ст.).